Flag for Switzerland Weather past 2 weeks in Winterthur, Switzerland

Now
57 °F

Fog.


Feels Like: 57 °F
Forecast: 55 / 67 °F
Wind: 2 mph from Southeast

Location: Zurich-Kloten

Current Time: Jul 28, 2014 at 6:38:04 AM

Latest Report: Jul 28, 2014 at 6:20 AM


Visibility: 6 mi

Pressure: 29.95 "Hg

Humidity: 100%

Dew point: 57 °F

Location of WinterthurLocation

Historic Weather in Winterthur — Graph

°F

Winterthur temperature yesterday

Maximum temperature yesterday: 68 °F (at 1:50 PM)
Minimum temperature yesterday: 61 °F (at 12:20 AM)
Average temperature yesterday: 64 °F

Past Weeks' High & Low Weather Summary

 TemperatureHumidityPressure
High93 °F (Jul 19, 6:50 PM)100% (Jul 13, 6:50 AM)30.21 "Hg (Jul 13, 6:50 AM)
Low52 °F (Jul 16, 5:50 AM)25% (Jul 18, 4:50 PM)29.83 "Hg (Jul 20, 2:20 AM)
Average67 °F76%30.01 "Hg
* Reported Jul 13 5:20 AM — Jul 28 5:20 AM, Winterthur, Weather by CustomWeather, © 2014

Note: Actual official high and low records may vary slightly from our data, if they occured in-between our weather recording intervals... More about our weather records

Advertising

Winterthur weather history for previous 24 hours

 ConditionsComfort  
Time TempWeatherWind HumidityBarometerVisibility
5:20 AM
Jul 28
57 °FPassing clouds.2 mph100%29.98 "HgN/A
4:20 AM59 °FPassing clouds.5 mph100%29.98 "HgN/A
3:50 AM61 °FPassing clouds.1 mph94%29.98 "HgN/A
3:20 AM63 °FPartly cloudy.2 mph94%30.01 "HgN/A
2:50 AM63 °FPassing clouds.1 mph94%30.01 "HgN/A
1:50 AM63 °FPassing clouds.1 mph94%30.01 "HgN/A
1:20 AM63 °FPassing clouds.1 mph94%30.04 "HgN/A
12:50 AM63 °FPassing clouds.2 mph94%30.04 "HgN/A
12:20 AM64 °FPassing clouds.No wind88%30.04 "HgN/A
11:50 PM
Jul 27
64 °FPassing clouds.2 mph88%30.04 "HgN/A
11:20 PM64 °FPassing clouds.2 mph88%30.04 "HgN/A
10:50 PM64 °FPassing clouds.2 mph83%30.07 "HgN/A
10:20 PM64 °FPassing clouds.3 mph83%30.04 "HgN/A
9:50 PM64 °FPartly sunny.3 mph88%30.04 "HgN/A
9:20 PM66 °FPartly sunny.2 mph83%30.04 "HgN/A
8:50 PM66 °FPartly sunny.3 mph83%30.04 "HgN/A
8:20 PM66 °FPartly sunny.5 mph83%30.04 "HgN/A
7:50 PM66 °FPartly sunny.5 mph83%30.04 "HgN/A
7:20 PM68 °FPartly sunny.6 mph78%30.04 "HgN/A
6:50 PM68 °FPartly sunny.6 mph78%30.04 "HgN/A
6:20 PM66 °FPartly sunny.6 mph83%30.04 "HgN/A
5:50 PM66 °FBroken clouds.7 mph83%30.04 "HgN/A
5:20 PM66 °FPartly sunny.7 mph83%30.04 "HgN/A
4:20 PM66 °FPartly sunny.6 mph83%30.07 "HgN/A
3:50 PM66 °FPartly sunny.7 mph83%30.07 "HgN/A
3:20 PM68 °FPartly sunny.8 mph78%30.07 "HgN/A
2:50 PM68 °FScattered showers. Partly sunny.6 mph78%30.07 "HgN/A
2:20 PM68 °FScattered showers. Partly sunny.6 mph78%30.07 "HgN/A
1:50 PM68 °FPartly sunny.8 mph83%30.07 "HgN/A
1:20 PM66 °FPartly sunny.7 mph83%30.07 "HgN/A
12:50 PM66 °FBroken clouds.6 mph83%30.07 "HgN/A
12:20 PM66 °FBroken clouds.6 mph83%30.07 "HgN/A
11:50 AM64 °FBroken clouds.6 mph88%30.07 "HgN/A
11:20 AM64 °FBroken clouds.6 mph88%30.07 "HgN/A
10:50 AM63 °FLight rain. Broken clouds.6 mph94%30.07 "HgN/A
10:20 AM63 °FLight rain. Broken clouds.6 mph94%30.07 "HgN/A
9:50 AM63 °FBroken clouds.6 mph94%30.07 "HgN/A
9:20 AM63 °FDrizzle. Broken clouds.6 mph94%30.07 "HgN/A
8:50 AM63 °FLight rain. Broken clouds.3 mph94%30.07 "Hg6 mi
8:20 AM61 °FLight rain. Broken clouds.3 mph100%30.07 "Hg6 mi
7:50 AM61 °FLight rain. Broken clouds.2 mph94%30.07 "Hg6 mi
7:20 AM61 °FLight rain. Broken clouds.2 mph100%30.04 "Hg6 mi
6:20 AM61 °FLight rain. Partly cloudy.3 mph94%30.04 "Hg6 mi
Weather by CustomWeather, © 2014

See weather overviewHow to use our weather pages